| time (UTC) | temp F | wind direction | speed knots | gust knots | rain 1hr in | rain 24hr in | rain mn in | humidity % | barometer mb |
| 20260509000427 | 67 | 171 | 0.0 | 0.9 | 0.00 | 0.00 | 0.00 | 38 | 1046.6 |
| 20260508235922 | 67 | 219 | 0.9 | 0.9 | 0.00 | 0.00 | 0.00 | 37 | 1046.8 |
| 20260508235421 | 67 | 202 | 1.7 | 2.6 | 0.00 | 0.00 | 0.00 | 37 | 1046.9 |
| 20260508234917 | 68 | 199 | 0.9 | 3.5 | 0.00 | 0.00 | 0.00 | 38 | 1046.9 |
| 20260508234414 | 68 | 188 | 2.6 | 2.6 | 0.00 | 0.00 | 0.00 | 36 | 1047.0 |
| 20260508233912 | 68 | 330 | 0.9 | 2.6 | 0.00 | 0.00 | 0.00 | 38 | 1046.9 |
| 20260508233411 | 69 | 185 | 1.7 | 1.7 | 0.00 | 0.00 | 0.00 | 38 | 1047.0 |
| 20260508232908 | 70 | 208 | 2.6 | 2.6 | 0.00 | 0.00 | 0.00 | 37 | 1047.3 |
| 20260508232404 | 71 | 289 | 1.7 | 6.1 | 0.00 | 0.00 | 0.00 | 35 | 1047.2 |
| 20260508231902 | 71 | 243 | 1.7 | 3.5 | 0.00 | 0.00 | 0.00 | 34 | 1047.1 |
| 20260508231359 | 71 | 184 | 0.9 | 6.1 | 0.00 | 0.00 | 0.00 | 37 | 1047.3 |
| 20260508230855 | 71 | 182 | 1.7 | 6.1 | 0.00 | 0.00 | 0.00 | 37 | 1047.1 |
| 20260508230352 | 71 | 103 | 1.7 | 3.5 | 0.00 | 0.00 | 0.00 | 35 | 1047.1 |
| 20260508225849 | 71 | 166 | 0.9 | 3.5 | 0.00 | 0.00 | 0.00 | 36 | 1047.3 |
| 20260508225345 | 71 | 258 | 0.0 | 5.2 | 0.00 | 0.00 | 0.00 | 34 | 1046.9 |
| 20260508224844 | 72 | 77 | 1.7 | 6.1 | 0.00 | 0.00 | 0.00 | 35 | 1047.3 |
| 20260508224341 | 72 | 224 | 0.9 | 2.6 | 0.00 | 0.00 | 0.00 | 33 | 1047.2 |
| 20260508223838 | 71 | 251 | 0.0 | 2.6 | 0.00 | 0.00 | 0.00 | 35 | 1047.1 |
| 20260508223335 | 71 | 136 | 1.7 | 6.1 | 0.00 | 0.00 | 0.00 | 33 | 1047.3 |
| 20260508222833 | 72 | 241 | 0.9 | 5.2 | 0.00 | 0.00 | 0.00 | 33 | 1047.2 |
| 20260508222330 | 72 | 209 | 2.6 | 2.6 | 0.00 | 0.00 | 0.00 | 34 | 1047.1 |
| 20260508221827 | 71 | 169 | 0.9 | 6.1 | 0.00 | 0.00 | 0.00 | 38 | 1047.1 |
| 20260508221322 | 71 | 29 | 1.7 | 9.6 | 0.00 | 0.00 | 0.00 | 33 | 1046.8 |
| 20260508220819 | 72 | 177 | 5.2 | 8.7 | 0.00 | 0.00 | 0.00 | 33 | 1047.0 |
| 20260508220315 | 72 | 313 | 2.6 | 5.2 | 0.00 | 0.00 | 0.00 | 33 | 1047.1 |
| 20260508215812 | 72 | 293 | 2.6 | 3.5 | 0.00 | 0.00 | 0.00 | 36 | 1047.0 |
| 20260508215308 | 73 | 250 | 1.7 | 6.1 | 0.00 | 0.00 | 0.00 | 33 | 1047.3 |
| 20260508214806 | 73 | 261 | 2.6 | 7.0 | 0.00 | 0.00 | 0.00 | 33 | 1046.8 |
| 20260508214302 | 73 | 167 | 0.0 | 1.7 | 0.00 | 0.00 | 0.00 | 40 | 1047.0 |
| 20260508213759 | 72 | 198 | 1.7 | 5.2 | 0.00 | 0.00 | 0.00 | 36 | 1046.8 |
| 20260508213256 | 73 | 165 | 3.5 | 6.1 | 0.00 | 0.00 | 0.00 | 35 | 1046.7 |
| 20260508212752 | 73 | 190 | 0.0 | 5.2 | 0.00 | 0.00 | 0.00 | 36 | 1046.4 |
| 20260508212248 | 73 | 272 | 1.7 | 8.7 | 0.00 | 0.00 | 0.00 | 37 | 1046.8 |
| 20260508211744 | 72 | 145 | 6.1 | 7.0 | 0.00 | 0.00 | 0.00 | 30 | 1046.8 |
| 20260508211240 | 71 | 146 | 5.2 | 7.8 | 0.00 | 0.00 | 0.00 | 34 | 1047.3 |
| 20260508210738 | 73 | 157 | 8.7 | 12.2 | 0.00 | 0.00 | 0.00 | 31 | 1047.4 |
| 20260508210235 | 73 | 195 | 1.7 | 2.6 | 0.00 | 0.00 | 0.00 | 35 | 1047.4 |
| 20260508205732 | 72 | 168 | 1.7 | 6.1 | 0.00 | 0.00 | 0.00 | 38 | 1047.6 |
| 20260508205228 | 71 | 160 | 1.7 | 6.1 | 0.00 | 0.00 | 0.00 | 34 | 1047.6 |
| 20260508204724 | 72 | 171 | 2.6 | 11.3 | 0.00 | 0.00 | 0.00 | 37 | 1047.5 |
| 20260508204221 | 73 | 198 | 7.8 | 12.2 | 0.00 | 0.00 | 0.00 | 32 | 1047.8 |
| 20260508203717 | 73 | 43 | 1.7 | 3.5 | 0.00 | 0.00 | 0.00 | 35 | 1047.6 |
| 20260508203213 | 73 | 230 | 1.7 | 11.3 | 0.00 | 0.00 | 0.00 | 35 | 1047.7 |
| 20260508202710 | 73 | 296 | 1.7 | 6.1 | 0.00 | 0.00 | 0.00 | 35 | 1048.0 |
| 20260508202207 | 72 | 223 | 2.6 | 5.2 | 0.00 | 0.00 | 0.00 | 34 | 1048.0 |
| 20260508201704 | 73 | 211 | 3.5 | 6.1 | 0.00 | 0.00 | 0.00 | 35 | 1048.2 |
| 20260508201200 | 73 | 289 | 4.3 | 7.0 | 0.00 | 0.00 | 0.00 | 35 | 1048.4 |
| 20260508200657 | 73 | 197 | 1.7 | 11.3 | 0.00 | 0.00 | 0.00 | 37 | 1048.4 |
| 20260508200153 | 73 | 209 | 5.2 | 7.0 | 0.00 | 0.00 | 0.00 | 33 | 1048.2 |
| 20260508195650 | 72 | 298 | 4.3 | 6.1 | 0.00 | 0.00 | 0.00 | 33 | 1048.3 |
| 20260508195146 | 73 | 329 | 2.6 | 9.6 | 0.00 | 0.00 | 0.00 | 36 | 1048.2 |
| 20260508194643 | 72 | 208 | 3.5 | 6.1 | 0.00 | 0.00 | 0.00 | 36 | 1048.3 |
| 20260508194140 | 72 | 181 | 3.5 | 6.1 | 0.00 | 0.00 | 0.00 | 35 | 1048.2 |
| 20260508193637 | 71 | 181 | 3.5 | 13.0 | 0.00 | 0.00 | 0.00 | 36 | 1048.2 |
| 20260508193133 | 72 | 250 | 1.7 | 5.2 | 0.00 | 0.00 | 0.00 | 37 | 1048.0 |
| 20260508192630 | 72 | 179 | 2.6 | 7.0 | 0.00 | 0.00 | 0.00 | 34 | 1048.2 |
| 20260508192128 | 73 | 231 | 4.3 | 7.0 | 0.00 | 0.00 | 0.00 | 38 | 1048.5 |
| 20260508191624 | 72 | 170 | 3.5 | 6.1 | 0.00 | 0.00 | 0.00 | 34 | 1048.4 |
| 20260508191121 | 73 | 208 | 4.3 | 8.7 | 0.00 | 0.00 | 0.00 | 38 | 1048.6 |
| 20260508190619 | 73 | 177 | 2.6 | 7.0 | 0.00 | 0.00 | 0.00 | 39 | 1048.4 |
| 20260508190114 | 72 | 134 | 5.2 | 7.0 | 0.00 | 0.00 | 0.00 | 37 | 1048.5 |
| 20260508185611 | 71 | 278 | 1.7 | 2.6 | 0.00 | 0.00 | 0.00 | 38 | 1048.7 |
| 20260508185109 | 72 | 169 | 3.5 | 3.5 | 0.00 | 0.00 | 0.00 | 33 | 1048.8 |
| 20260508184606 | 72 | 346 | 2.6 | 7.8 | 0.00 | 0.00 | 0.00 | 37 | 1048.8 |
| 20260508184103 | 72 | 179 | 2.6 | 7.0 | 0.00 | 0.00 | 0.00 | 39 | 1048.8 |
| 20260508183559 | 72 | 341 | 5.2 | 7.0 | 0.00 | 0.00 | 0.00 | 34 | 1049.0 |
| 20260508183055 | 71 | 155 | 3.5 | 7.0 | 0.00 | 0.00 | 0.00 | 32 | 1049.0 |
| 20260508182552 | 70 | 179 | 7.8 | 8.7 | 0.00 | 0.00 | 0.00 | 36 | 1049.2 |
| 20260508182049 | 70 | 157 | 8.7 | 15.6 | 0.00 | 0.00 | 0.00 | 35 | 1049.5 |
| 20260508181549 | 72 | 321 | 1.7 | 11.3 | 0.00 | 0.00 | 0.00 | 38 | 1049.9 |
| 20260508181048 | 71 | 157 | 3.5 | 5.2 | 0.00 | 0.00 | 0.00 | 40 | 1049.8 |
| 20260508180544 | 71 | 279 | 0.9 | 8.7 | 0.00 | 0.00 | 0.00 | 39 | 1049.8 |
| 20260508180040 | 70 | 283 | 2.6 | 7.8 | 0.00 | 0.00 | 0.00 | 41 | 1049.8 |
| 20260508175537 | 69 | 133 | 7.0 | 8.7 | 0.00 | 0.00 | 0.00 | 37 | 1049.9 |
| 20260508175035 | 69 | 155 | 5.2 | 9.6 | 0.00 | 0.00 | 0.00 | 37 | 1050.0 |
| 20260508174532 | 70 | 168 | 5.2 | 9.6 | 0.00 | 0.00 | 0.00 | 37 | 1050.3 |
| 20260508174029 | 71 | 75 | 3.5 | 6.1 | 0.00 | 0.00 | 0.00 | 36 | 1050.5 |
| 20260508173526 | 71 | 126 | 3.5 | 6.1 | 0.00 | 0.00 | 0.00 | 37 | 1050.4 |
| 20260508173021 | 71 | 143 | 0.9 | 9.6 | 0.00 | 0.00 | 0.00 | 43 | 1050.5 |
| 20260508172519 | 71 | 341 | 1.7 | 7.0 | 0.00 | 0.00 | 0.00 | 41 | 1050.8 |
| 20260508172015 | 70 | 181 | 0.9 | 7.0 | 0.00 | 0.00 | 0.00 | 43 | 1050.8 |
| 20260508171512 | 69 | 351 | 1.7 | 7.0 | 0.00 | 0.00 | 0.00 | 39 | 1050.6 |
| 20260508171008 | 69 | 174 | 2.6 | 7.0 | 0.00 | 0.00 | 0.00 | 44 | 1050.9 |
| 20260508170506 | 67 | 141 | 2.6 | 13.0 | 0.00 | 0.00 | 0.00 | 43 | 1051.0 |
| 20260508170003 | 70 | 172 | 3.5 | 7.8 | 0.00 | 0.00 | 0.00 | 40 | 1051.0 |
| 20260508165500 | 69 | 189 | 0.9 | 1.7 | 0.00 | 0.00 | 0.00 | 42 | 1051.0 |
| 20260508164956 | 70 | 151 | 4.3 | 3.5 | 0.00 | 0.00 | 0.00 | 38 | 1051.4 |
| 20260508164453 | 70 | 242 | 2.6 | 5.2 | 0.00 | 0.00 | 0.00 | 37 | 1051.4 |
| 20260508163950 | 71 | 187 | 0.0 | 2.6 | 0.00 | 0.00 | 0.00 | 42 | 1051.7 |
| 20260508163448 | 70 | 210 | 0.0 | 1.7 | 0.00 | 0.00 | 0.00 | 45 | 1051.7 |
| 20260508162943 | 70 | 254 | 0.9 | 5.2 | 0.00 | 0.00 | 0.00 | 40 | 1051.7 |
| 20260508162441 | 70 | 183 | 4.3 | 5.2 | 0.00 | 0.00 | 0.00 | 41 | 1051.8 |
| 20260508161938 | 69 | 228 | 0.9 | 2.6 | 0.00 | 0.00 | 0.00 | 44 | 1051.7 |
| 20260508161435 | 69 | 171 | 0.9 | 5.2 | 0.00 | 0.00 | 0.00 | 44 | 1052.0 |
| 20260508160932 | 69 | 190 | 0.9 | 3.5 | 0.00 | 0.00 | 0.00 | 45 | 1051.8 |
| 20260508160431 | 68 | 176 | 3.5 | 7.0 | 0.00 | 0.00 | 0.00 | 41 | 1052.0 |
| 20260508155927 | 69 | 349 | 0.9 | 5.2 | 0.00 | 0.00 | 0.00 | 41 | 1052.0 |
| 20260508155424 | 67 | 209 | 2.6 | 7.0 | 0.00 | 0.00 | 0.00 | 45 | 1052.3 |
| 20260508154921 | 68 | 160 | 5.2 | 7.8 | 0.00 | 0.00 | 0.00 | 41 | 1052.2 |
| 20260508154419 | 69 | 216 | 1.7 | 3.5 | 0.00 | 0.00 | 0.00 | 38 | 1052.2 |
| 20260508153915 | 68 | 206 | 0.9 | 1.7 | 0.00 | 0.00 | 0.00 | 43 | 1052.0 |
| 20260508153412 | 68 | 177 | 5.2 | 12.2 | 0.00 | 0.00 | 0.00 | 36 | 1052.3 |
| 20260508152908 | 68 | 269 | 2.6 | 3.5 | 0.00 | 0.00 | 0.00 | 42 | 1052.5 |
| 20260508152405 | 67 | 254 | 2.6 | 6.1 | 0.00 | 0.00 | 0.00 | 44 | 1052.8 |
| 20260508151901 | 67 | 282 | 2.6 | 5.2 | 0.00 | 0.00 | 0.00 | 42 | 1052.6 |
| 20260508151358 | 66 | 216 | 3.5 | 8.7 | 0.00 | 0.00 | 0.00 | 42 | 1052.6 |
| 20260508150854 | 66 | 284 | 6.1 | 7.0 | 0.00 | 0.00 | 0.00 | 40 | 1052.4 |
| 20260508150351 | 67 | 284 | 0.9 | 3.5 | 0.00 | 0.00 | 0.00 | 42 | 1052.5 |
| 20260508145847 | 67 | 197 | 3.5 | 6.1 | 0.00 | 0.00 | 0.00 | 43 | 1052.4 |
| 20260508145344 | 67 | 116 | 1.7 | 5.2 | 0.00 | 0.00 | 0.00 | 44 | 1052.7 |
| 20260508144840 | 66 | 180 | 5.2 | 7.8 | 0.00 | 0.00 | 0.00 | 42 | 1052.7 |
| 20260508144339 | 65 | 193 | 2.6 | 5.2 | 0.00 | 0.00 | 0.00 | 41 | 1052.3 |
| 20260508143836 | 65 | 166 | 3.5 | 5.2 | 0.00 | 0.00 | 0.00 | 44 | 1052.4 |
| 20260508143333 | 65 | 178 | 0.9 | 8.7 | 0.00 | 0.00 | 0.00 | 48 | 1052.4 |
| 20260508142830 | 65 | 208 | 0.9 | 1.7 | 0.00 | 0.00 | 0.00 | 54 | 1052.6 |
| 20260508142326 | 64 | 119 | 1.7 | 7.8 | 0.00 | 0.00 | 0.00 | 46 | 1052.6 |
| 20260508141822 | 65 | 170 | 1.7 | 6.1 | 0.00 | 0.00 | 0.00 | 48 | 1052.6 |
| 20260508141320 | 64 | 118 | 0.9 | 2.6 | 0.00 | 0.00 | 0.00 | 47 | 1052.5 |
| 20260508140817 | 64 | 180 | 1.7 | 3.5 | 0.00 | 0.00 | 0.00 | 48 | 1052.8 |
| 20260508140314 | 63 | 185 | 0.0 | 3.5 | 0.00 | 0.00 | 0.00 | 51 | 1052.6 |
| 20260508135810 | 63 | 329 | 0.9 | 3.5 | 0.00 | 0.00 | 0.00 | 50 | 1052.6 |
| 20260508135306 | 62 | 160 | 2.6 | 6.1 | 0.00 | 0.00 | 0.00 | 51 | 1052.7 |
| 20260508134802 | 62 | 243 | 1.7 | 3.5 | 0.00 | 0.00 | 0.00 | 47 | 1052.9 |
| 20260508134259 | 62 | 174 | 4.3 | 5.2 | 0.00 | 0.00 | 0.00 | 50 | 1052.9 |
| 20260508133756 | 61 | 211 | 0.0 | 1.7 | 0.00 | 0.00 | 0.00 | 56 | 1052.9 |
| 20260508133254 | 60 | 200 | 0.0 | 2.6 | 0.00 | 0.00 | 0.00 | 58 | 1052.8 |
| 20260508132751 | 60 | 261 | 2.6 | 3.5 | 0.00 | 0.00 | 0.00 | 51 | 1052.6 |
| 20260508132248 | 58 | 222 | 0.9 | 2.6 | 0.00 | 0.00 | 0.00 | 61 | 1052.8 |
| 20260508131744 | 58 | 289 | 3.5 | 3.5 | 0.00 | 0.00 | 0.00 | 57 | 1052.5 |
| 20260508131240 | 58 | 276 | 1.7 | 1.7 | 0.00 | 0.00 | 0.00 | 64 | 1052.5 |
| 20260508130737 | 57 | 168 | 0.9 | 0.9 | 0.00 | 0.00 | 0.00 | 67 | 1052.4 |
| 20260508130235 | 55 | 167 | 0.0 | 0.0 | 0.00 | 0.00 | 0.00 | 67 | 1052.6 |
| 20260508125730 | 53 | 167 | 1.7 | 1.7 | 0.00 | 0.00 | 0.00 | 69 | 1052.6 |
| 20260508125226 | 52 | 167 | 0.9 | 1.7 | 0.00 | 0.00 | 0.00 | 69 | 1052.6 |
| 20260508124725 | 51 | 168 | 1.7 | 1.7 | 0.00 | 0.00 | 0.00 | 72 | 1052.6 |
| 20260508124222 | 50 | 168 | 1.7 | 2.6 | 0.00 | 0.00 | 0.00 | 74 | 1052.5 |
| 20260508123720 | 49 | 170 | 2.6 | 2.6 | 0.00 | 0.00 | 0.00 | 75 | 1052.8 |
| 20260508123218 | 48 | 172 | 2.6 | 3.5 | 0.00 | 0.00 | 0.00 | 77 | 1052.5 |
| 20260508122713 | 48 | 138 | 3.5 | 3.5 | 0.00 | 0.00 | 0.00 | 76 | 1052.7 |
| 20260508122210 | 47 | 148 | 1.7 | 2.6 | 0.00 | 0.00 | 0.00 | 77 | 1052.7 |
| 20260508121708 | 47 | 148 | 3.5 | 3.5 | 0.00 | 0.00 | 0.00 | 76 | 1052.3 |
| 20260508121207 | 47 | 281 | 2.6 | 2.6 | 0.00 | 0.00 | 0.00 | 76 | 1052.7 |
| 20260508120703 | 46 | 284 | 0.0 | 1.7 | 0.00 | 0.00 | 0.00 | 82 | 1052.5 |
| 20260508120202 | 46 | 285 | 1.7 | 2.6 | 0.00 | 0.00 | 0.00 | 81 | 1052.5 |
| 20260508115659 | 44 | 289 | 0.9 | 0.9 | 0.00 | 0.00 | 0.00 | 88 | 1052.5 |
| 20260508115156 | 44 | 290 | 0.0 | 0.0 | 0.00 | 0.00 | 0.00 | 92 | 1052.6 |
| 20260508114653 | 43 | 290 | 0.0 | 0.0 | 0.00 | 0.00 | 0.00 | 95 | 1052.4 |
| 20260508114149 | 42 | 290 | 0.0 | 0.0 | 0.00 | 0.00 | 0.00 | 97 | 1052.6 |
| 20260508113646 | 41 | 290 | 0.0 | 0.0 | 0.00 | 0.00 | 0.00 | 97 | 1052.3 |
| 20260508113144 | 40 | 290 | 0.0 | 0.0 | 0.00 | 0.00 | 0.00 | 97 | 1052.4 |
| 20260508112640 | 40 | 290 | 0.0 | 0.0 | 0.00 | 0.00 | 0.00 | 97 | 1052.2 |
| 20260508112137 | 39 | 290 | 0.0 | 0.0 | 0.00 | 0.00 | 0.00 | 97 | 1051.9 |
| 20260508111634 | 39 | 290 | 0.0 | 0.0 | 0.00 | 0.00 | 0.00 | 97 | 1052.1 |
| 20260508111131 | 38 | 291 | 0.0 | 0.0 | 0.00 | 0.00 | 0.00 | 97 | 1052.2 |
| 20260508110629 | 38 | 290 | 0.0 | 0.0 | 0.00 | 0.00 | 0.00 | 97 | 1051.8 |
| 20260508110125 | 37 | 290 | 0.0 | 0.0 | 0.00 | 0.00 | 0.00 | 97 | 1051.9 |
| 20260508105625 | 37 | 290 | 0.0 | 0.0 | 0.00 | 0.00 | 0.00 | 97 | 1051.9 |
| 20260508105123 | 37 | 290 | 0.0 | 0.0 | 0.00 | 0.00 | 0.00 | 97 | 1051.7 |
| 20260508104620 | 36 | 290 | 0.0 | 0.0 | 0.00 | 0.00 | 0.00 | 97 | 1052.0 |
| 20260508104117 | 37 | 290 | 0.0 | 0.0 | 0.00 | 0.00 | 0.00 | 97 | 1051.6 |
| 20260508103614 | 36 | 290 | 0.0 | 0.0 | 0.00 | 0.00 | 0.00 | 97 | 1051.7 |
| 20260508103111 | 36 | 290 | 0.0 | 0.0 | 0.00 | 0.00 | 0.00 | 97 | 1051.6 |
| 20260508102609 | 36 | 290 | 0.0 | 0.0 | 0.00 | 0.00 | 0.00 | 97 | 1051.7 |
| 20260508102106 | 36 | 290 | 0.0 | 0.0 | 0.00 | 0.00 | 0.00 | 97 | 1051.7 |
| 20260508101604 | 36 | 290 | 0.0 | 0.0 | 0.00 | 0.00 | 0.00 | 97 | 1051.5 |
| 20260508101101 | 37 | 290 | 0.0 | 0.0 | 0.00 | 0.00 | 0.00 | 97 | 1051.7 |
| 20260508100558 | 37 | 290 | 0.0 | 0.0 | 0.00 | 0.00 | 0.00 | 97 | 1051.4 |
| 20260508100055 | 37 | 290 | 0.0 | 0.0 | 0.00 | 0.00 | 0.00 | 97 | 1051.4 |
| 20260508095552 | 38 | 290 | 0.0 | 0.0 | 0.00 | 0.00 | 0.00 | 96 | 1051.7 |
| 20260508095049 | 38 | 290 | 0.0 | 0.0 | 0.00 | 0.00 | 0.00 | 97 | 1051.4 |
| 20260508094546 | 37 | 290 | 0.0 | 0.0 | 0.00 | 0.00 | 0.00 | 96 | 1051.6 |
| 20260508094043 | 37 | 290 | 0.0 | 0.0 | 0.00 | 0.00 | 0.00 | 97 | 1051.6 |
| 20260508093540 | 37 | 290 | 0.0 | 0.0 | 0.00 | 0.00 | 0.00 | 97 | 1051.6 |
| 20260508093038 | 38 | 290 | 0.0 | 0.0 | 0.00 | 0.00 | 0.00 | 96 | 1051.6 |
| 20260508092535 | 38 | 290 | 0.0 | 0.0 | 0.00 | 0.00 | 0.00 | 97 | 1051.5 |
| 20260508092034 | 38 | 290 | 1.7 | 0.9 | 0.00 | 0.00 | 0.00 | 97 | 1051.7 |
| 20260508091530 | 38 | 290 | 1.7 | 1.7 | 0.00 | 0.00 | 0.00 | 97 | 1051.4 |
| 20260508091027 | 38 | 290 | 0.0 | 0.0 | 0.00 | 0.00 | 0.00 | 97 | 1051.7 |
| 20260508090525 | 38 | 290 | 0.0 | 0.0 | 0.00 | 0.00 | 0.00 | 97 | 1051.7 |
| 20260508090022 | 38 | 290 | 0.0 | 0.0 | 0.00 | 0.00 | 0.00 | 96 | 1051.7 |
| 20260508085518 | 39 | 290 | 0.0 | 0.0 | 0.00 | 0.00 | 0.00 | 97 | 1051.8 |
| 20260508085015 | 38 | 290 | 0.0 | 0.0 | 0.00 | 0.00 | 0.00 | 97 | 1051.7 |
| 20260508084512 | 38 | 290 | 0.0 | 0.0 | 0.00 | 0.00 | 0.00 | 96 | 1051.8 |
| 20260508084010 | 38 | 290 | 0.0 | 0.0 | 0.00 | 0.00 | 0.00 | 96 | 1051.7 |
| 20260508083506 | 38 | 290 | 0.0 | 0.0 | 0.00 | 0.00 | 0.00 | 96 | 1051.9 |
| 20260508083002 | 38 | 290 | 0.0 | 0.0 | 0.00 | 0.00 | 0.00 | 96 | 1051.9 |
| 20260508082459 | 38 | 290 | 0.0 | 0.0 | 0.00 | 0.00 | 0.00 | 96 | 1051.7 |
| 20260508081957 | 38 | 290 | 0.0 | 0.0 | 0.00 | 0.00 | 0.00 | 96 | 1051.7 |
| 20260508081454 | 39 | 290 | 0.0 | 0.0 | 0.00 | 0.00 | 0.00 | 96 | 1051.9 |
| 20260508080949 | 39 | 290 | 0.0 | 0.0 | 0.00 | 0.00 | 0.00 | 96 | 1051.9 |
| 20260508080448 | 38 | 290 | 0.0 | 0.0 | 0.00 | 0.00 | 0.00 | 96 | 1051.6 |
| 20260508075944 | 39 | 290 | 0.0 | 0.0 | 0.00 | 0.00 | 0.00 | 96 | 1051.7 |
| 20260508075442 | 39 | 290 | 0.0 | 0.0 | 0.00 | 0.00 | 0.00 | 96 | 1051.8 |
| 20260508074939 | 39 | 290 | 0.0 | 0.0 | 0.00 | 0.00 | 0.00 | 96 | 1051.7 |
| 20260508074437 | 39 | 290 | 0.0 | 0.0 | 0.00 | 0.00 | 0.00 | 96 | 1051.8 |
| 20260508073933 | 39 | 290 | 0.0 | 0.0 | 0.00 | 0.00 | 0.00 | 96 | 1051.6 |
| 20260508073431 | 39 | 290 | 0.0 | 0.0 | 0.00 | 0.00 | 0.00 | 96 | 1051.8 |
| 20260508072928 | 39 | 290 | 0.0 | 0.0 | 0.00 | 0.00 | 0.00 | 96 | 1051.7 |
| 20260508072424 | 39 | 290 | 0.0 | 0.0 | 0.00 | 0.00 | 0.00 | 96 | 1051.8 |
| 20260508071921 | 39 | 290 | 0.0 | 0.0 | 0.00 | 0.00 | 0.00 | 96 | 1051.9 |
| 20260508071419 | 39 | 290 | 0.0 | 0.0 | 0.00 | 0.00 | 0.00 | 96 | 1051.8 |
| 20260508070917 | 39 | 290 | 0.0 | 0.0 | 0.00 | 0.00 | 0.00 | 96 | 1051.6 |
| 20260508070414 | 39 | 290 | 0.0 | 0.0 | 0.00 | 0.00 | 0.00 | 95 | 1051.7 |
| 20260508065912 | 40 | 290 | 0.0 | 0.0 | 0.00 | 0.00 | 0.00 | 95 | 1051.6 |
| 20260508065410 | 40 | 290 | 0.0 | 0.0 | 0.00 | 0.00 | 0.00 | 95 | 1051.7 |
| 20260508064908 | 40 | 290 | 0.0 | 0.0 | 0.00 | 0.00 | 0.00 | 95 | 1051.8 |
| 20260508064405 | 40 | 290 | 0.0 | 0.0 | 0.00 | 0.00 | 0.00 | 95 | 1052.0 |
| 20260508063903 | 40 | 290 | 0.0 | 0.0 | 0.00 | 0.00 | 0.00 | 95 | 1051.9 |
| 20260508063400 | 39 | 290 | 0.0 | 0.0 | 0.00 | 0.00 | 0.00 | 95 | 1051.8 |
| 20260508062857 | 39 | 290 | 0.0 | 0.0 | 0.00 | 0.00 | 0.00 | 95 | 1051.9 |
| 20260508062355 | 40 | 290 | 0.0 | 0.0 | 0.00 | 0.00 | 0.00 | 95 | 1052.0 |
| 20260508061852 | 39 | 290 | 0.0 | 0.0 | 0.00 | 0.00 | 0.00 | 95 | 1052.0 |
| 20260508061349 | 39 | 290 | 0.0 | 0.0 | 0.00 | 0.00 | 0.00 | 95 | 1052.0 |
| 20260508060845 | 38 | 290 | 0.0 | 0.0 | 0.00 | 0.00 | 0.00 | 95 | 1051.9 |
| 20260508060344 | 39 | 290 | 0.0 | 0.0 | 0.00 | 0.00 | 0.00 | 95 | 1051.9 |
| 20260508055844 | 39 | 290 | 0.0 | 0.0 | 0.00 | 0.00 | 0.00 | 95 | 1052.1 |
| 20260508055342 | 38 | 290 | 0.0 | 0.0 | 0.00 | 0.00 | 0.00 | 95 | 1052.1 |
| 20260508054837 | 38 | 290 | 0.0 | 0.0 | 0.00 | 0.00 | 0.00 | 94 | 1052.2 |
| 20260508054335 | 39 | 290 | 0.0 | 0.9 | 0.00 | 0.00 | 0.00 | 94 | 1052.1 |
| 20260508053832 | 38 | 290 | 0.0 | 0.0 | 0.00 | 0.00 | 0.00 | 94 | 1052.2 |
| 20260508053330 | 38 | 290 | 0.0 | 0.0 | 0.00 | 0.00 | 0.00 | 94 | 1052.2 |
| 20260508052827 | 39 | 290 | 0.0 | 0.0 | 0.00 | 0.00 | 0.00 | 93 | 1052.1 |
| 20260508052324 | 39 | 290 | 0.0 | 0.0 | 0.00 | 0.00 | 0.00 | 94 | 1052.1 |
| 20260508051820 | 39 | 290 | 0.0 | 0.0 | 0.00 | 0.00 | 0.00 | 93 | 1052.4 |
| 20260508051316 | 40 | 290 | 0.0 | 0.0 | 0.00 | 0.00 | 0.00 | 94 | 1052.4 |
| 20260508050812 | 41 | 290 | 0.0 | 0.0 | 0.00 | 0.00 | 0.00 | 94 | 1052.1 |
| 20260508050309 | 41 | 290 | 0.0 | 0.0 | 0.00 | 0.00 | 0.00 | 93 | 1052.0 |
| 20260508045805 | 41 | 290 | 0.0 | 0.0 | 0.00 | 0.00 | 0.00 | 94 | 1051.9 |
| 20260508045306 | 41 | 290 | 0.0 | 0.0 | 0.00 | 0.00 | 0.00 | 93 | 1052.1 |
| 20260508044800 | 41 | 290 | 0.0 | 0.0 | 0.00 | 0.00 | 0.00 | 93 | 1052.1 |
| 20260508044257 | 41 | 290 | 0.0 | 0.0 | 0.00 | 0.00 | 0.00 | 93 | 1052.1 |
| 20260508043753 | 40 | 290 | 0.0 | 0.0 | 0.00 | 0.00 | 0.00 | 93 | 1052.1 |
| 20260508043250 | 40 | 290 | 0.0 | 0.0 | 0.00 | 0.00 | 0.00 | 92 | 1051.9 |
| 20260508042747 | 40 | 290 | 0.0 | 0.0 | 0.00 | 0.00 | 0.00 | 92 | 1051.9 |
| 20260508042244 | 40 | 290 | 0.0 | 0.0 | 0.00 | 0.00 | 0.00 | 92 | 1052.1 |
| 20260508041741 | 40 | 290 | 0.0 | 0.0 | 0.00 | 0.00 | 0.00 | 92 | 1052.1 |
| 20260508041238 | 40 | 290 | 0.0 | 0.0 | 0.00 | 0.00 | 0.00 | 91 | 1051.9 |
| 20260508040734 | 40 | 290 | 0.0 | 0.0 | 0.00 | 0.00 | 0.00 | 91 | 1051.9 |
| 20260508040231 | 41 | 290 | 0.0 | 0.0 | 0.00 | 0.00 | 0.00 | 90 | 1052.0 |
| 20260508035729 | 41 | 290 | 0.0 | 0.0 | 0.00 | 0.00 | 0.00 | 89 | 1051.8 |
| 20260508035226 | 42 | 290 | 0.0 | 0.0 | 0.00 | 0.00 | 0.00 | 89 | 1051.8 |
| 20260508034722 | 42 | 290 | 0.0 | 0.0 | 0.00 | 0.00 | 0.00 | 90 | 1052.1 |
| 20260508034220 | 42 | 290 | 0.0 | 0.0 | 0.00 | 0.00 | 0.00 | 89 | 1051.9 |
| 20260508033717 | 42 | 290 | 0.0 | 0.0 | 0.00 | 0.00 | 0.00 | 87 | 1052.0 |
| 20260508033215 | 43 | 290 | 0.0 | 0.0 | 0.00 | 0.00 | 0.00 | 86 | 1052.1 |
| 20260508032712 | 43 | 290 | 0.0 | 0.0 | 0.00 | 0.00 | 0.00 | 86 | 1052.0 |
| 20260508032209 | 43 | 290 | 0.0 | 0.0 | 0.00 | 0.00 | 0.00 | 85 | 1052.1 |
| 20260508031706 | 43 | 290 | 0.0 | 0.0 | 0.00 | 0.00 | 0.00 | 83 | 1052.2 |
| 20260508031202 | 43 | 290 | 0.0 | 0.0 | 0.00 | 0.00 | 0.00 | 83 | 1052.1 |
| 20260508030659 | 44 | 290 | 0.0 | 0.0 | 0.00 | 0.00 | 0.00 | 81 | 1052.1 |
| 20260508030156 | 43 | 290 | 0.0 | 0.0 | 0.00 | 0.00 | 0.00 | 81 | 1052.3 |
| 20260508025653 | 44 | 290 | 0.0 | 0.0 | 0.00 | 0.00 | 0.00 | 82 | 1052.0 |
| 20260508025150 | 44 | 290 | 0.0 | 0.0 | 0.00 | 0.00 | 0.00 | 81 | 1052.0 |
| 20260508024645 | 46 | 290 | 0.0 | 0.0 | 0.00 | 0.00 | 0.00 | 79 | 1051.7 |
| 20260508024143 | 46 | 290 | 0.0 | 0.0 | 0.00 | 0.00 | 0.00 | 77 | 1051.8 |
| 20260508023639 | 46 | 290 | 0.0 | 0.0 | 0.00 | 0.00 | 0.00 | 74 | 1051.6 |
| 20260508023137 | 45 | 290 | 0.0 | 0.0 | 0.00 | 0.00 | 0.00 | 70 | 1052.0 |
| 20260508022632 | 46 | 290 | 0.0 | 0.0 | 0.00 | 0.00 | 0.00 | 76 | 1052.0 |
| 20260508022130 | 46 | 290 | 0.0 | 0.0 | 0.00 | 0.00 | 0.00 | 75 | 1051.8 |
| 20260508021625 | 47 | 290 | 0.0 | 0.0 | 0.00 | 0.00 | 0.00 | 67 | 1052.0 |
| 20260508021121 | 46 | 290 | 0.0 | 0.0 | 0.00 | 0.00 | 0.00 | 69 | 1051.8 |
| 20260508020620 | 46 | 290 | 0.0 | 0.0 | 0.00 | 0.00 | 0.00 | 75 | 1051.7 |
| 20260508020117 | 47 | 290 | 0.0 | 0.0 | 0.00 | 0.00 | 0.00 | 73 | 1051.6 |
| 20260508015614 | 46 | 290 | 0.0 | 0.0 | 0.00 | 0.00 | 0.00 | 68 | 1051.6 |
| 20260508015111 | 46 | 290 | 0.0 | 0.0 | 0.00 | 0.00 | 0.00 | 63 | 1051.5 |
| 20260508014607 | 47 | 290 | 0.0 | 0.0 | 0.00 | 0.00 | 0.00 | 68 | 1051.4 |
| 20260508014104 | 48 | 290 | 0.0 | 0.0 | 0.00 | 0.00 | 0.00 | 65 | 1051.2 |
| 20260508013559 | 48 | 290 | 0.0 | 0.0 | 0.00 | 0.00 | 0.00 | 61 | 1051.3 |
| 20260508013057 | 47 | 290 | 0.0 | 0.0 | 0.00 | 0.00 | 0.00 | 61 | 1051.2 |
| 20260508012554 | 47 | 290 | 0.0 | 0.0 | 0.00 | 0.00 | 0.00 | 62 | 1051.3 |
| 20260508012051 | 48 | 290 | 0.0 | 0.0 | 0.00 | 0.00 | 0.00 | 62 | 1051.1 |
| 20260508011550 | 48 | 290 | 0.0 | 0.0 | 0.00 | 0.00 | 0.00 | 60 | 1051.2 |
| 20260508011047 | 48 | 290 | 0.0 | 0.0 | 0.00 | 0.00 | 0.00 | 61 | 1051.1 |
| 20260508010543 | 49 | 290 | 0.0 | 0.0 | 0.00 | 0.00 | 0.00 | 61 | 1051.1 |
| 20260508010041 | 50 | 290 | 0.0 | 0.0 | 0.00 | 0.00 | 0.00 | 58 | 1050.9 |
| 20260508005537 | 51 | 290 | 0.0 | 0.0 | 0.00 | 0.00 | 0.00 | 58 | 1051.0 |
| 20260508005034 | 51 | 290 | 0.0 | 0.0 | 0.00 | 0.00 | 0.00 | 54 | 1050.8 |
| 20260508004530 | 52 | 290 | 0.0 | 0.0 | 0.00 | 0.00 | 0.00 | 53 | 1050.8 |
| 20260508004027 | 53 | 290 | 0.0 | 0.0 | 0.00 | 0.00 | 0.00 | 52 | 1050.7 |
| 20260508003523 | 54 | 291 | 0.0 | 0.0 | 0.00 | 0.00 | 0.00 | 50 | 1050.6 |
| 20260508003021 | 55 | 291 | 0.0 | 0.0 | 0.00 | 0.00 | 0.00 | 51 | 1050.7 |
| 20260508002517 | 55 | 291 | 0.9 | 1.7 | 0.00 | 0.00 | 0.00 | 48 | 1050.6 |
| 20260508002015 | 56 | 291 | 0.0 | 0.9 | 0.00 | 0.00 | 0.00 | 48 | 1050.6 |
| 20260508001510 | 57 | 291 | 0.9 | 0.9 | 0.00 | 0.00 | 0.00 | 48 | 1050.5 |
| 20260508001007 | 58 | 291 | 2.6 | 3.5 | 0.00 | 0.00 | 0.00 | 43 | 1050.4 |